owner,sensor,date,latitude,longitude,vertical_datum,sea_water_practical_salinity,qcFlag 
WAVCIS,ioos:station:WAVCIS:CSI16:1,2010-01-13T22:00:00Z,29.4012,-89.0355,1.0,16.474,11111222 
WAVCIS,ioos:station:WAVCIS:CSI16:1,2010-01-13T22:15:00Z,29.4012,-89.0355,1.0,16.976,11111222 
WAVCIS,ioos:station:WAVCIS:CSI16:1,2010-01-13T22:30:00Z,29.4012,-89.0355,1.0,21.091,11111222 
WAVCIS,ioos:station:WAVCIS:CSI16:1,2010-01-13T22:45:00Z,29.4012,-89.0355,1.0,21.155,11111222 
WAVCIS,ioos:station:WAVCIS:CSI16:1,2010-01-13T23:00:00Z,29.4012,-89.0355,1.0,20.668,11111222 
WAVCIS,ioos:station:WAVCIS:CSI16:1,2010-01-13T23:15:00Z,29.4012,-89.0355,1.0,19.345,11111222 
WAVCIS,ioos:station:WAVCIS:CSI16:1,2010-01-13T23:30:00Z,29.4012,-89.0355,1.0,19.373,11111222 
WAVCIS,ioos:station:WAVCIS:CSI16:1,2010-01-13T23:45:00Z,29.4012,-89.0355,1.0,20.327,11111222 
WAVCIS,ioos:station:WAVCIS:CSI16:1,2010-01-14T00:00:00Z,29.4012,-89.0355,1.0,20.4,11111222 
WAVCIS,ioos:station:WAVCIS:CSI16:1,2010-01-14T00:15:00Z,29.4012,-89.0355,1.0,20.573,11111222 
WAVCIS,ioos:station:WAVCIS:CSI16:1,2010-01-14T00:30:00Z,29.4012,-89.0355,1.0,20.684,11111222 
WAVCIS,ioos:station:WAVCIS:CSI16:1,2010-01-14T00:45:00Z,29.4012,-89.0355,1.0,20.834,11111222 
WAVCIS,ioos:station:WAVCIS:CSI16:1,2010-01-14T01:00:00Z,29.4012,-89.0355,1.0,22.095,11111222 
WAVCIS,ioos:station:WAVCIS:CSI16:1,2010-01-14T01:15:00Z,29.4012,-89.0355,1.0,22.852,11111222 
WAVCIS,ioos:station:WAVCIS:CSI16:1,2010-01-14T01:30:00Z,29.4012,-89.0355,1.0,24.705,11111222 
WAVCIS,ioos:station:WAVCIS:CSI16:1,2010-01-14T01:45:00Z,29.4012,-89.0355,1.0,24.958,11111222 
WAVCIS,ioos:station:WAVCIS:CSI16:1,2010-01-14T02:00:00Z,29.4012,-89.0355,1.0,24.726,11111222 
WAVCIS,ioos:station:WAVCIS:CSI16:1,2010-01-14T02:15:00Z,29.4012,-89.0355,1.0,25.897,11111222 
WAVCIS,ioos:station:WAVCIS:CSI16:1,2010-01-14T02:30:00Z,29.4012,-89.0355,1.0,25.622,11111222 
WAVCIS,ioos:station:WAVCIS:CSI16:1,2010-01-14T02:45:00Z,29.4012,-89.0355,1.0,25.651,11111222 
WAVCIS,ioos:station:WAVCIS:CSI16:1,2010-01-14T03:00:00Z,29.4012,-89.0355,1.0,25.694,11111222 
WAVCIS,ioos:station:WAVCIS:CSI16:1,2010-01-14T03:15:00Z,29.4012,-89.0355,1.0,25.669,11111222 
WAVCIS,ioos:station:WAVCIS:CSI16:1,2010-01-14T03:30:00Z,29.4012,-89.0355,1.0,26.288,11111222 
WAVCIS,ioos:station:WAVCIS:CSI16:1,2010-01-14T03:45:00Z,29.4012,-89.0355,1.0,25.62,11111222 
WAVCIS,ioos:station:WAVCIS:CSI16:1,2010-01-14T04:00:00Z,29.4012,-89.0355,1.0,26.272,11111222 
WAVCIS,ioos:station:WAVCIS:CSI16:1,2010-01-14T04:15:00Z,29.4012,-89.0355,1.0,24.844,11111222 
WAVCIS,ioos:station:WAVCIS:CSI16:1,2010-01-14T04:30:00Z,29.4012,-89.0355,1.0,26.65,11111222 
WAVCIS,ioos:station:WAVCIS:CSI16:1,2010-01-14T04:45:00Z,29.4012,-89.0355,1.0,26.246,11111222 
WAVCIS,ioos:station:WAVCIS:CSI16:1,2010-01-14T05:00:00Z,29.4012,-89.0355,1.0,22.916,11111222 
WAVCIS,ioos:station:WAVCIS:CSI16:1,2010-01-14T05:15:00Z,29.4012,-89.0355,1.0,22.496,11111222 
WAVCIS,ioos:station:WAVCIS:CSI16:1,2010-01-14T05:30:00Z,29.4012,-89.0355,1.0,22.685,11111222 
WAVCIS,ioos:station:WAVCIS:CSI16:1,2010-01-14T05:45:00Z,29.4012,-89.0355,1.0,22.479,11111222 
WAVCIS,ioos:station:WAVCIS:CSI16:1,2010-01-14T06:00:00Z,29.4012,-89.0355,1.0,20.514,11111222 
WAVCIS,ioos:station:WAVCIS:CSI16:1,2010-01-14T06:15:00Z,29.4012,-89.0355,1.0,20.374,11111222 
WAVCIS,ioos:station:WAVCIS:CSI16:1,2010-01-14T06:30:00Z,29.4012,-89.0355,1.0,20.003,11111222 
WAVCIS,ioos:station:WAVCIS:CSI16:1,2010-01-14T06:45:00Z,29.4012,-89.0355,1.0,19.52,11111222 
WAVCIS,ioos:station:WAVCIS:CSI16:1,2010-01-14T07:00:00Z,29.4012,-89.0355,1.0,18.99,11111222 
WAVCIS,ioos:station:WAVCIS:CSI16:1,2010-01-14T07:15:00Z,29.4012,-89.0355,1.0,18.699,11111222 
WAVCIS,ioos:station:WAVCIS:CSI16:1,2010-01-14T07:30:00Z,29.4012,-89.0355,1.0,18.257,11111222 
WAVCIS,ioos:station:WAVCIS:CSI16:1,2010-01-14T07:45:00Z,29.4012,-89.0355,1.0,17.958,11111222 
WAVCIS,ioos:station:WAVCIS:CSI16:1,2010-01-14T08:00:00Z,29.4012,-89.0355,1.0,17.876,11111222 
WAVCIS,ioos:station:WAVCIS:CSI16:1,2010-01-14T08:15:00Z,29.4012,-89.0355,1.0,18.19,11111222 
WAVCIS,ioos:station:WAVCIS:CSI16:1,2010-01-14T08:30:00Z,29.4012,-89.0355,1.0,17.765,11111222 
WAVCIS,ioos:station:WAVCIS:CSI16:1,2010-01-14T08:45:00Z,29.4012,-89.0355,1.0,17.32,11111222 
WAVCIS,ioos:station:WAVCIS:CSI16:1,2010-01-14T09:00:00Z,29.4012,-89.0355,1.0,18.418,11111222 
WAVCIS,ioos:station:WAVCIS:CSI16:1,2010-01-14T09:15:00Z,29.4012,-89.0355,1.0,17.75,11111222 
WAVCIS,ioos:station:WAVCIS:CSI16:1,2010-01-14T09:30:00Z,29.4012,-89.0355,1.0,17.204,11111222 
WAVCIS,ioos:station:WAVCIS:CSI16:1,2010-01-14T09:45:00Z,29.4012,-89.0355,1.0,16.951,11111222 
WAVCIS,ioos:station:WAVCIS:CSI16:1,2010-01-14T10:00:00Z,29.4012,-89.0355,1.0,16.477,11111222 
WAVCIS,ioos:station:WAVCIS:CSI16:1,2010-01-14T10:15:00Z,29.4012,-89.0355,1.0,16.253,11111222 
WAVCIS,ioos:station:WAVCIS:CSI16:1,2010-01-14T10:30:00Z,29.4012,-89.0355,1.0,16.163,11111222 
WAVCIS,ioos:station:WAVCIS:CSI16:1,2010-01-14T10:45:00Z,29.4012,-89.0355,1.0,16.321,11111222 
WAVCIS,ioos:station:WAVCIS:CSI16:1,2010-01-14T11:00:00Z,29.4012,-89.0355,1.0,13.634,11111222 
WAVCIS,ioos:station:WAVCIS:CSI16:1,2010-01-14T11:15:00Z,29.4012,-89.0355,1.0,13.477,11111222 
WAVCIS,ioos:station:WAVCIS:CSI16:1,2010-01-14T11:30:00Z,29.4012,-89.0355,1.0,15.045,11111222 
WAVCIS,ioos:station:WAVCIS:CSI16:1,2010-01-14T11:45:00Z,29.4012,-89.0355,1.0,14.855,11111222 
WAVCIS,ioos:station:WAVCIS:CSI16:1,2010-01-14T12:00:00Z,29.4012,-89.0355,1.0,15.61,11111222 
WAVCIS,ioos:station:WAVCIS:CSI16:1,2010-01-14T12:15:00Z,29.4012,-89.0355,1.0,16.034,11111222 
WAVCIS,ioos:station:WAVCIS:CSI16:1,2010-01-14T12:30:00Z,29.4012,-89.0355,1.0,17.005,11111222 
WAVCIS,ioos:station:WAVCIS:CSI16:1,2010-01-14T12:45:00Z,29.4012,-89.0355,1.0,18.489,11111222 
WAVCIS,ioos:station:WAVCIS:CSI16:1,2010-01-14T13:00:00Z,29.4012,-89.0355,1.0,19.128,11111222 
WAVCIS,ioos:station:WAVCIS:CSI16:1,2010-01-14T13:15:00Z,29.4012,-89.0355,1.0,19.981,11111222 
WAVCIS,ioos:station:WAVCIS:CSI16:1,2010-01-14T13:30:00Z,29.4012,-89.0355,1.0,20.455,11111222 
WAVCIS,ioos:station:WAVCIS:CSI16:1,2010-01-14T13:45:00Z,29.4012,-89.0355,1.0,20.78,11111222 
WAVCIS,ioos:station:WAVCIS:CSI16:1,2010-01-14T14:00:00Z,29.4012,-89.0355,1.0,21.344,11111222 
WAVCIS,ioos:station:WAVCIS:CSI16:1,2010-01-14T14:15:00Z,29.4012,-89.0355,1.0,21.18,11111222 
WAVCIS,ioos:station:WAVCIS:CSI16:1,2010-01-14T14:30:00Z,29.4012,-89.0355,1.0,20.551,11111222 
WAVCIS,ioos:station:WAVCIS:CSI16:1,2010-01-14T14:45:00Z,29.4012,-89.0355,1.0,21.089,11111222 
WAVCIS,ioos:station:WAVCIS:CSI16:1,2010-01-14T15:00:00Z,29.4012,-89.0355,1.0,21.2,11111222 
WAVCIS,ioos:station:WAVCIS:CSI16:1,2010-01-14T15:15:00Z,29.4012,-89.0355,1.0,20.699,11111222 
WAVCIS,ioos:station:WAVCIS:CSI16:1,2010-01-14T15:30:00Z,29.4012,-89.0355,1.0,20.367,11111222 
WAVCIS,ioos:station:WAVCIS:CSI16:1,2010-01-14T15:45:00Z,29.4012,-89.0355,1.0,20.232,11111222 
WAVCIS,ioos:station:WAVCIS:CSI16:1,2010-01-14T16:00:00Z,29.4012,-89.0355,1.0,20.407,11111222 
WAVCIS,ioos:station:WAVCIS:CSI16:1,2010-01-14T16:15:00Z,29.4012,-89.0355,1.0,20.844,11111222 
WAVCIS,ioos:station:WAVCIS:CSI16:1,2010-01-14T16:30:00Z,29.4012,-89.0355,1.0,20.931,11111222 
WAVCIS,ioos:station:WAVCIS:CSI16:1,2010-01-14T16:45:00Z,29.4012,-89.0355,1.0,22.446,11111222 
WAVCIS,ioos:station:WAVCIS:CSI16:1,2010-01-14T17:00:00Z,29.4012,-89.0355,1.0,23.359,11111222 
WAVCIS,ioos:station:WAVCIS:CSI16:1,2010-01-14T17:15:00Z,29.4012,-89.0355,1.0,23.742,11111222 
WAVCIS,ioos:station:WAVCIS:CSI16:1,2010-01-14T17:30:00Z,29.4012,-89.0355,1.0,23.761,11111222 
WAVCIS,ioos:station:WAVCIS:CSI16:1,2010-01-14T17:45:00Z,29.4012,-89.0355,1.0,24.232,11111222 
WAVCIS,ioos:station:WAVCIS:CSI16:1,2010-01-14T18:00:00Z,29.4012,-89.0355,1.0,22.466,11111222 
WAVCIS,ioos:station:WAVCIS:CSI16:1,2010-01-14T18:15:00Z,29.4012,-89.0355,1.0,22.785,11111222 
WAVCIS,ioos:station:WAVCIS:CSI16:1,2010-01-14T19:30:00Z,29.4012,-89.0355,1.0,23.774,11111222 
WAVCIS,ioos:station:WAVCIS:CSI16:1,2010-01-14T19:45:00Z,29.4012,-89.0355,1.0,24.52,11111222 
WAVCIS,ioos:station:WAVCIS:CSI16:1,2010-01-14T20:00:00Z,29.4012,-89.0355,1.0,24.953,11111222 
WAVCIS,ioos:station:WAVCIS:CSI16:1,2010-01-14T20:15:00Z,29.4012,-89.0355,1.0,24.705,11111222 
WAVCIS,ioos:station:WAVCIS:CSI16:1,2010-01-14T20:30:00Z,29.4012,-89.0355,1.0,23.697,11111222 
WAVCIS,ioos:station:WAVCIS:CSI16:1,2010-01-14T20:45:00Z,29.4012,-89.0355,1.0,24.498,11111222 
WAVCIS,ioos:station:WAVCIS:CSI16:1,2010-01-14T21:00:00Z,29.4012,-89.0355,1.0,24.61,11111222 
WAVCIS,ioos:station:WAVCIS:CSI16:1,2010-01-14T21:15:00Z,29.4012,-89.0355,1.0,24.151,11111222 
WAVCIS,ioos:station:WAVCIS:CSI16:1,2010-01-14T21:30:00Z,29.4012,-89.0355,1.0,23.452,11111222 
WAVCIS,ioos:station:WAVCIS:CSI16:1,2010-01-14T21:45:00Z,29.4012,-89.0355,1.0,24.716,11111222 
WAVCIS,ioos:station:WAVCIS:CSI16:1,2010-01-14T22:00:00Z,29.4012,-89.0355,1.0,24.205,11111222 
WAVCIS,ioos:station:WAVCIS:CSI16:1,2010-01-14T22:15:00Z,29.4012,-89.0355,1.0,24.118,11111222 
WAVCIS,ioos:station:WAVCIS:CSI16:1,2010-01-14T22:30:00Z,29.4012,-89.0355,1.0,24.489,11111222 
WAVCIS,ioos:station:WAVCIS:CSI16:1,2010-01-14T22:45:00Z,29.4012,-89.0355,1.0,25.18,11111222 
WAVCIS,ioos:station:WAVCIS:CSI16:1,2010-01-14T23:00:00Z,29.4012,-89.0355,1.0,24.631,11111222 
WAVCIS,ioos:station:WAVCIS:CSI16:1,2010-01-14T23:15:00Z,29.4012,-89.0355,1.0,24.678,11111222 
WAVCIS,ioos:station:WAVCIS:CSI16:1,2010-01-14T23:30:00Z,29.4012,-89.0355,1.0,24.777,11111222 
WAVCIS,ioos:station:WAVCIS:CSI16:1,2010-01-14T23:45:00Z,29.4012,-89.0355,1.0,24.674,11111222 
WAVCIS,ioos:station:WAVCIS:CSI16:1,2010-01-15T00:00:00Z,29.4012,-89.0355,1.0,23.562,11111222 
WAVCIS,ioos:station:WAVCIS:CSI16:1,2010-01-15T00:15:00Z,29.4012,-89.0355,1.0,24.121,11111222 
WAVCIS,ioos:station:WAVCIS:CSI16:1,2010-01-15T00:30:00Z,29.4012,-89.0355,1.0,24.184,11111222 
WAVCIS,ioos:station:WAVCIS:CSI16:1,2010-01-15T00:45:00Z,29.4012,-89.0355,1.0,24.91,11111222 
WAVCIS,ioos:station:WAVCIS:CSI16:1,2010-01-15T01:00:00Z,29.4012,-89.0355,1.0,24.724,11111222 
WAVCIS,ioos:station:WAVCIS:CSI16:1,2010-01-15T01:15:00Z,29.4012,-89.0355,1.0,24.683,11111222 
WAVCIS,ioos:station:WAVCIS:CSI16:1,2010-01-15T01:30:00Z,29.4012,-89.0355,1.0,24.847,11111222 
WAVCIS,ioos:station:WAVCIS:CSI16:1,2010-01-15T01:45:00Z,29.4012,-89.0355,1.0,24.964,11111222 
WAVCIS,ioos:station:WAVCIS:CSI16:1,2010-01-15T02:00:00Z,29.4012,-89.0355,1.0,25.074,11111222 
WAVCIS,ioos:station:WAVCIS:CSI16:1,2010-01-15T02:15:00Z,29.4012,-89.0355,1.0,25.124,11111222 
WAVCIS,ioos:station:WAVCIS:CSI16:1,2010-01-15T02:30:00Z,29.4012,-89.0355,1.0,25.042,11111222 
WAVCIS,ioos:station:WAVCIS:CSI16:1,2010-01-15T02:45:00Z,29.4012,-89.0355,1.0,25.595,11111222 
WAVCIS,ioos:station:WAVCIS:CSI16:1,2010-01-15T03:00:00Z,29.4012,-89.0355,1.0,25.253,11111222 
WAVCIS,ioos:station:WAVCIS:CSI16:1,2010-01-15T03:15:00Z,29.4012,-89.0355,1.0,25.489,11111222 
WAVCIS,ioos:station:WAVCIS:CSI16:1,2010-01-15T03:30:00Z,29.4012,-89.0355,1.0,26.918,11111222 
WAVCIS,ioos:station:WAVCIS:CSI16:1,2010-01-15T03:45:00Z,29.4012,-89.0355,1.0,26.605,11111222 
WAVCIS,ioos:station:WAVCIS:CSI16:1,2010-01-15T04:00:00Z,29.4012,-89.0355,1.0,27.771,11111222 
WAVCIS,ioos:station:WAVCIS:CSI16:1,2010-01-15T04:15:00Z,29.4012,-89.0355,1.0,27.513,11111222 
WAVCIS,ioos:station:WAVCIS:CSI16:1,2010-01-15T04:30:00Z,29.4012,-89.0355,1.0,26.852,11111222 
WAVCIS,ioos:station:WAVCIS:CSI16:1,2010-01-15T04:45:00Z,29.4012,-89.0355,1.0,27.195,11111222 
WAVCIS,ioos:station:WAVCIS:CSI16:1,2010-01-15T05:00:00Z,29.4012,-89.0355,1.0,27.14,11111222 
WAVCIS,ioos:station:WAVCIS:CSI16:1,2010-01-15T05:15:00Z,29.4012,-89.0355,1.0,27.108,11111222 
WAVCIS,ioos:station:WAVCIS:CSI16:1,2010-01-15T05:30:00Z,29.4012,-89.0355,1.0,27.035,11111222 
WAVCIS,ioos:station:WAVCIS:CSI16:1,2010-01-15T05:45:00Z,29.4012,-89.0355,1.0,26.629,11111222 
WAVCIS,ioos:station:WAVCIS:CSI16:1,2010-01-15T06:00:00Z,29.4012,-89.0355,1.0,26.64,11111222 
WAVCIS,ioos:station:WAVCIS:CSI16:1,2010-01-15T06:15:00Z,29.4012,-89.0355,1.0,25.929,11111222 
WAVCIS,ioos:station:WAVCIS:CSI16:1,2010-01-15T06:30:00Z,29.4012,-89.0355,1.0,25.616,11111222 
WAVCIS,ioos:station:WAVCIS:CSI16:1,2010-01-15T06:45:00Z,29.4012,-89.0355,1.0,24.824,11111222 
WAVCIS,ioos:station:WAVCIS:CSI16:1,2010-01-15T07:00:00Z,29.4012,-89.0355,1.0,24.483,11111222 
WAVCIS,ioos:station:WAVCIS:CSI16:1,2010-01-15T07:15:00Z,29.4012,-89.0355,1.0,24.526,11111222 
WAVCIS,ioos:station:WAVCIS:CSI16:1,2010-01-15T07:30:00Z,29.4012,-89.0355,1.0,23.862,11111222 
WAVCIS,ioos:station:WAVCIS:CSI16:1,2010-01-15T07:45:00Z,29.4012,-89.0355,1.0,24.242,11111222 
WAVCIS,ioos:station:WAVCIS:CSI16:1,2010-01-15T08:00:00Z,29.4012,-89.0355,1.0,23.945,11111222 
WAVCIS,ioos:station:WAVCIS:CSI16:1,2010-01-15T08:15:00Z,29.4012,-89.0355,1.0,23.936,11111222 
WAVCIS,ioos:station:WAVCIS:CSI16:1,2010-01-15T08:30:00Z,29.4012,-89.0355,1.0,24.066,11111222 
WAVCIS,ioos:station:WAVCIS:CSI16:1,2010-01-15T08:45:00Z,29.4012,-89.0355,1.0,24.142,11111222 
WAVCIS,ioos:station:WAVCIS:CSI16:1,2010-01-15T09:00:00Z,29.4012,-89.0355,1.0,24.17,11111222 
WAVCIS,ioos:station:WAVCIS:CSI16:1,2010-01-15T09:15:00Z,29.4012,-89.0355,1.0,24.311,11111222 
WAVCIS,ioos:station:WAVCIS:CSI16:1,2010-01-15T09:30:00Z,29.4012,-89.0355,1.0,24.408,11111222 
WAVCIS,ioos:station:WAVCIS:CSI16:1,2010-01-15T09:45:00Z,29.4012,-89.0355,1.0,24.495,11111222 
WAVCIS,ioos:station:WAVCIS:CSI16:1,2010-01-15T10:00:00Z,29.4012,-89.0355,1.0,24.547,11111222 
WAVCIS,ioos:station:WAVCIS:CSI16:1,2010-01-15T10:15:00Z,29.4012,-89.0355,1.0,24.715,11111222 
WAVCIS,ioos:station:WAVCIS:CSI16:1,2010-01-15T10:30:00Z,29.4012,-89.0355,1.0,24.776,11111222 
WAVCIS,ioos:station:WAVCIS:CSI16:1,2010-01-15T10:45:00Z,29.4012,-89.0355,1.0,24.885,11111222 
WAVCIS,ioos:station:WAVCIS:CSI16:1,2010-01-15T11:00:00Z,29.4012,-89.0355,1.0,24.881,11111222 
WAVCIS,ioos:station:WAVCIS:CSI16:1,2010-01-15T11:15:00Z,29.4012,-89.0355,1.0,24.929,11111222 
WAVCIS,ioos:station:WAVCIS:CSI16:1,2010-01-15T11:30:00Z,29.4012,-89.0355,1.0,24.869,11111222 
WAVCIS,ioos:station:WAVCIS:CSI16:1,2010-01-15T11:45:00Z,29.4012,-89.0355,1.0,24.937,11111222 
WAVCIS,ioos:station:WAVCIS:CSI16:1,2010-01-15T12:00:00Z,29.4012,-89.0355,1.0,24.979,11111222 
WAVCIS,ioos:station:WAVCIS:CSI16:1,2010-01-15T12:15:00Z,29.4012,-89.0355,1.0,24.996,11111222 
WAVCIS,ioos:station:WAVCIS:CSI16:1,2010-01-15T12:30:00Z,29.4012,-89.0355,1.0,24.98,11111222 
WAVCIS,ioos:station:WAVCIS:CSI16:1,2010-01-15T12:45:00Z,29.4012,-89.0355,1.0,24.819,11111222 
WAVCIS,ioos:station:WAVCIS:CSI16:1,2010-01-15T13:00:00Z,29.4012,-89.0355,1.0,24.85,11111222 
WAVCIS,ioos:station:WAVCIS:CSI16:1,2010-01-15T13:15:00Z,29.4012,-89.0355,1.0,24.877,11111222 
WAVCIS,ioos:station:WAVCIS:CSI16:1,2010-01-15T13:30:00Z,29.4012,-89.0355,1.0,24.785,11111222 
WAVCIS,ioos:station:WAVCIS:CSI16:1,2010-01-15T13:45:00Z,29.4012,-89.0355,1.0,24.626,11111222 
WAVCIS,ioos:station:WAVCIS:CSI16:1,2010-01-15T14:00:00Z,29.4012,-89.0355,1.0,24.716,11111222 
WAVCIS,ioos:station:WAVCIS:CSI16:1,2010-01-15T14:15:00Z,29.4012,-89.0355,1.0,24.685,11111222 
WAVCIS,ioos:station:WAVCIS:CSI16:1,2010-01-15T14:30:00Z,29.4012,-89.0355,1.0,24.798,11111222 
WAVCIS,ioos:station:WAVCIS:CSI16:1,2010-01-15T14:45:00Z,29.4012,-89.0355,1.0,24.965,11111222 
WAVCIS,ioos:station:WAVCIS:CSI16:1,2010-01-15T15:00:00Z,29.4012,-89.0355,1.0,25.042,11111222 
WAVCIS,ioos:station:WAVCIS:CSI16:1,2010-01-15T15:15:00Z,29.4012,-89.0355,1.0,25.218,11111222 
WAVCIS,ioos:station:WAVCIS:CSI16:1,2010-01-15T15:30:00Z,29.4012,-89.0355,1.0,25.302,11111222 
WAVCIS,ioos:station:WAVCIS:CSI16:1,2010-01-15T15:45:00Z,29.4012,-89.0355,1.0,25.339,11111222 
WAVCIS,ioos:station:WAVCIS:CSI16:1,2010-01-15T16:00:00Z,29.4012,-89.0355,1.0,25.347,11111222 
WAVCIS,ioos:station:WAVCIS:CSI16:1,2010-01-15T16:15:00Z,29.4012,-89.0355,1.0,25.488,11111222 
WAVCIS,ioos:station:WAVCIS:CSI16:1,2010-01-15T16:30:00Z,29.4012,-89.0355,1.0,25.614,11111222 
WAVCIS,ioos:station:WAVCIS:CSI16:1,2010-01-15T16:45:00Z,29.4012,-89.0355,1.0,25.702,11111222 
WAVCIS,ioos:station:WAVCIS:CSI16:1,2010-01-15T17:00:00Z,29.4012,-89.0355,1.0,26.051,11111222 
WAVCIS,ioos:station:WAVCIS:CSI16:1,2010-01-15T17:15:00Z,29.4012,-89.0355,1.0,25.874,11111222 
WAVCIS,ioos:station:WAVCIS:CSI16:1,2010-01-15T17:30:00Z,29.4012,-89.0355,1.0,25.991,11111222 
WAVCIS,ioos:station:WAVCIS:CSI16:1,2010-01-15T17:45:00Z,29.4012,-89.0355,1.0,26.225,11111222 
WAVCIS,ioos:station:WAVCIS:CSI16:1,2010-01-15T18:00:00Z,29.4012,-89.0355,1.0,26.199,11111222 
WAVCIS,ioos:station:WAVCIS:CSI16:1,2010-01-15T18:15:00Z,29.4012,-89.0355,1.0,26.438,11111222 
WAVCIS,ioos:station:WAVCIS:CSI16:1,2010-01-15T18:30:00Z,29.4012,-89.0355,1.0,26.622,11111222 
WAVCIS,ioos:station:WAVCIS:CSI16:1,2010-01-15T18:45:00Z,29.4012,-89.0355,1.0,26.75,11111222 
WAVCIS,ioos:station:WAVCIS:CSI16:1,2010-01-15T19:00:00Z,29.4012,-89.0355,1.0,26.858,11111222 
WAVCIS,ioos:station:WAVCIS:CSI16:1,2010-01-15T19:15:00Z,29.4012,-89.0355,1.0,26.428,11111222 
WAVCIS,ioos:station:WAVCIS:CSI16:1,2010-01-15T19:30:00Z,29.4012,-89.0355,1.0,25.258,11111222 
WAVCIS,ioos:station:WAVCIS:CSI16:1,2010-01-15T19:45:00Z,29.4012,-89.0355,1.0,24.695,11111222 
WAVCIS,ioos:station:WAVCIS:CSI16:1,2010-01-15T20:00:00Z,29.4012,-89.0355,1.0,24.688,11111222 
WAVCIS,ioos:station:WAVCIS:CSI16:1,2010-01-15T20:15:00Z,29.4012,-89.0355,1.0,24.823,11111222 
WAVCIS,ioos:station:WAVCIS:CSI16:1,2010-01-15T20:30:00Z,29.4012,-89.0355,1.0,24.751,11111222 
WAVCIS,ioos:station:WAVCIS:CSI16:1,2010-01-15T20:45:00Z,29.4012,-89.0355,1.0,24.795,11111222 
WAVCIS,ioos:station:WAVCIS:CSI16:1,2010-01-15T21:00:00Z,29.4012,-89.0355,1.0,24.674,11111222 
WAVCIS,ioos:station:WAVCIS:CSI16:1,2010-01-15T21:15:00Z,29.4012,-89.0355,1.0,24.643,11111222 
WAVCIS,ioos:station:WAVCIS:CSI16:1,2010-01-15T21:30:00Z,29.4012,-89.0355,1.0,24.506,11111222 
WAVCIS,ioos:station:WAVCIS:CSI16:1,2010-01-15T21:45:00Z,29.4012,-89.0355,1.0,24.441,11111222 
WAVCIS,ioos:station:WAVCIS:CSI16:1,2010-01-15T22:00:00Z,29.4012,-89.0355,1.0,24.242,11111222 
WAVCIS,ioos:station:WAVCIS:CSI16:1,2010-01-15T22:15:00Z,29.4012,-89.0355,1.0,24.399,11111222 
WAVCIS,ioos:station:WAVCIS:CSI16:1,2010-01-15T22:30:00Z,29.4012,-89.0355,1.0,24.439,11111222 
WAVCIS,ioos:station:WAVCIS:CSI16:1,2010-01-15T22:45:00Z,29.4012,-89.0355,1.0,24.532,11111222 
WAVCIS,ioos:station:WAVCIS:CSI16:1,2010-01-15T23:00:00Z,29.4012,-89.0355,1.0,24.948,11111222 
WAVCIS,ioos:station:WAVCIS:CSI16:1,2010-01-15T23:15:00Z,29.4012,-89.0355,1.0,25.008,11111222 
WAVCIS,ioos:station:WAVCIS:CSI16:1,2010-01-15T23:30:00Z,29.4012,-89.0355,1.0,25.252,11111222 
WAVCIS,ioos:station:WAVCIS:CSI16:1,2010-01-15T23:45:00Z,29.4012,-89.0355,1.0,25.509,11111222 
WAVCIS,ioos:station:WAVCIS:CSI16:1,2010-01-16T00:00:00Z,29.4012,-89.0355,1.0,25.544,11111222 
WAVCIS,ioos:station:WAVCIS:CSI16:1,2010-01-16T00:15:00Z,29.4012,-89.0355,1.0,25.801,11111222 
WAVCIS,ioos:station:WAVCIS:CSI16:1,2010-01-16T00:30:00Z,29.4012,-89.0355,1.0,25.697,11111222 
WAVCIS,ioos:station:WAVCIS:CSI16:1,2010-01-16T00:45:00Z,29.4012,-89.0355,1.0,25.579,11111222 
WAVCIS,ioos:station:WAVCIS:CSI16:1,2010-01-16T01:00:00Z,29.4012,-89.0355,1.0,25.894,11111222 
WAVCIS,ioos:station:WAVCIS:CSI16:1,2010-01-16T01:15:00Z,29.4012,-89.0355,1.0,26.576,11111222 
WAVCIS,ioos:station:WAVCIS:CSI16:1,2010-01-16T01:30:00Z,29.4012,-89.0355,1.0,25.938,11111222 
WAVCIS,ioos:station:WAVCIS:CSI16:1,2010-01-16T01:45:00Z,29.4012,-89.0355,1.0,25.016,11111222 
WAVCIS,ioos:station:WAVCIS:CSI16:1,2010-01-16T02:00:00Z,29.4012,-89.0355,1.0,27.074,11111222 
WAVCIS,ioos:station:WAVCIS:CSI16:1,2010-01-16T02:15:00Z,29.4012,-89.0355,1.0,25.895,11111222 
WAVCIS,ioos:station:WAVCIS:CSI16:1,2010-01-16T02:30:00Z,29.4012,-89.0355,1.0,24.849,11111222 
WAVCIS,ioos:station:WAVCIS:CSI16:1,2010-01-16T02:45:00Z,29.4012,-89.0355,1.0,25.299,11111222 
WAVCIS,ioos:station:WAVCIS:CSI16:1,2010-01-16T03:00:00Z,29.4012,-89.0355,1.0,26.582,11111222 
WAVCIS,ioos:station:WAVCIS:CSI16:1,2010-01-16T03:15:00Z,29.4012,-89.0355,1.0,26.23,11111222 
WAVCIS,ioos:station:WAVCIS:CSI16:1,2010-01-16T03:30:00Z,29.4012,-89.0355,1.0,24.965,11111222 
WAVCIS,ioos:station:WAVCIS:CSI16:1,2010-01-16T03:45:00Z,29.4012,-89.0355,1.0,27.623,11111222 
WAVCIS,ioos:station:WAVCIS:CSI16:1,2010-01-16T04:00:00Z,29.4012,-89.0355,1.0,27.56,11111222 
WAVCIS,ioos:station:WAVCIS:CSI16:1,2010-01-16T04:15:00Z,29.4012,-89.0355,1.0,27.442,11111222 
WAVCIS,ioos:station:WAVCIS:CSI16:1,2010-01-16T04:30:00Z,29.4012,-89.0355,1.0,27.222,11111222 
WAVCIS,ioos:station:WAVCIS:CSI16:1,2010-01-16T04:45:00Z,29.4012,-89.0355,1.0,23.61,11111222 
WAVCIS,ioos:station:WAVCIS:CSI16:1,2010-01-16T05:00:00Z,29.4012,-89.0355,1.0,24.938,11111222 
WAVCIS,ioos:station:WAVCIS:CSI16:1,2010-01-16T05:15:00Z,29.4012,-89.0355,1.0,24.587,11111222 
WAVCIS,ioos:station:WAVCIS:CSI16:1,2010-01-16T05:30:00Z,29.4012,-89.0355,1.0,24.893,11111222 
WAVCIS,ioos:station:WAVCIS:CSI16:1,2010-01-16T05:45:00Z,29.4012,-89.0355,1.0,25.532,11111222 
WAVCIS,ioos:station:WAVCIS:CSI16:1,2010-01-16T06:00:00Z,29.4012,-89.0355,1.0,25.133,11111222 
WAVCIS,ioos:station:WAVCIS:CSI16:1,2010-01-16T06:15:00Z,29.4012,-89.0355,1.0,25.365,11111222 
WAVCIS,ioos:station:WAVCIS:CSI16:1,2010-01-16T06:30:00Z,29.4012,-89.0355,1.0,26.067,11111222 
WAVCIS,ioos:station:WAVCIS:CSI16:1,2010-01-16T06:45:00Z,29.4012,-89.0355,1.0,26.444,11111222 
WAVCIS,ioos:station:WAVCIS:CSI16:1,2010-01-16T07:00:00Z,29.4012,-89.0355,1.0,26.986,11111222 
WAVCIS,ioos:station:WAVCIS:CSI16:1,2010-01-16T07:15:00Z,29.4012,-89.0355,1.0,27.082,11111222 
WAVCIS,ioos:station:WAVCIS:CSI16:1,2010-01-16T07:30:00Z,29.4012,-89.0355,1.0,27.257,11111222 
WAVCIS,ioos:station:WAVCIS:CSI16:1,2010-01-16T07:45:00Z,29.4012,-89.0355,1.0,27.444,11111222 
WAVCIS,ioos:station:WAVCIS:CSI16:1,2010-01-16T08:00:00Z,29.4012,-89.0355,1.0,27.511,11111222 
WAVCIS,ioos:station:WAVCIS:CSI16:1,2010-01-16T08:15:00Z,29.4012,-89.0355,1.0,27.562,11111222 
WAVCIS,ioos:station:WAVCIS:CSI16:1,2010-01-16T08:30:00Z,29.4012,-89.0355,1.0,27.587,11111222 
WAVCIS,ioos:station:WAVCIS:CSI16:1,2010-01-16T08:45:00Z,29.4012,-89.0355,1.0,27.675,11111222 
WAVCIS,ioos:station:WAVCIS:CSI16:1,2010-01-16T09:00:00Z,29.4012,-89.0355,1.0,27.706,11111222 
WAVCIS,ioos:station:WAVCIS:CSI16:1,2010-01-16T09:15:00Z,29.4012,-89.0355,1.0,27.677,11111222 
WAVCIS,ioos:station:WAVCIS:CSI16:1,2010-01-16T09:30:00Z,29.4012,-89.0355,1.0,27.667,11111222 
WAVCIS,ioos:station:WAVCIS:CSI16:1,2010-01-16T09:45:00Z,29.4012,-89.0355,1.0,27.629,11111222 
WAVCIS,ioos:station:WAVCIS:CSI16:1,2010-01-16T10:00:00Z,29.4012,-89.0355,1.0,27.617,11111222 
WAVCIS,ioos:station:WAVCIS:CSI16:1,2010-01-16T10:15:00Z,29.4012,-89.0355,1.0,27.625,11111222 
WAVCIS,ioos:station:WAVCIS:CSI16:1,2010-01-16T10:30:00Z,29.4012,-89.0355,1.0,27.635,11111222 
WAVCIS,ioos:station:WAVCIS:CSI16:1,2010-01-16T10:45:00Z,29.4012,-89.0355,1.0,27.643,11111222 
WAVCIS,ioos:station:WAVCIS:CSI16:1,2010-01-16T11:00:00Z,29.4012,-89.0355,1.0,27.807,11111222 
WAVCIS,ioos:station:WAVCIS:CSI16:1,2010-01-16T11:15:00Z,29.4012,-89.0355,1.0,27.865,11111222 
WAVCIS,ioos:station:WAVCIS:CSI16:1,2010-01-16T11:30:00Z,29.4012,-89.0355,1.0,27.994,11111222 
WAVCIS,ioos:station:WAVCIS:CSI16:1,2010-01-16T11:45:00Z,29.4012,-89.0355,1.0,28.145,11111222 
WAVCIS,ioos:station:WAVCIS:CSI16:1,2010-01-16T12:00:00Z,29.4012,-89.0355,1.0,28.279,11111222 
WAVCIS,ioos:station:WAVCIS:CSI16:1,2010-01-16T12:15:00Z,29.4012,-89.0355,1.0,28.49,11111222 
WAVCIS,ioos:station:WAVCIS:CSI16:1,2010-01-16T12:30:00Z,29.4012,-89.0355,1.0,28.635,11111222 
WAVCIS,ioos:station:WAVCIS:CSI16:1,2010-01-16T12:45:00Z,29.4012,-89.0355,1.0,28.765,11111222 
WAVCIS,ioos:station:WAVCIS:CSI16:1,2010-01-16T13:00:00Z,29.4012,-89.0355,1.0,28.995,11111222 
WAVCIS,ioos:station:WAVCIS:CSI16:1,2010-01-16T13:15:00Z,29.4012,-89.0355,1.0,29.167,11111222 
WAVCIS,ioos:station:WAVCIS:CSI16:1,2010-01-16T13:30:00Z,29.4012,-89.0355,1.0,29.228,11111222 
WAVCIS,ioos:station:WAVCIS:CSI16:1,2010-01-16T13:45:00Z,29.4012,-89.0355,1.0,29.23,11111222 
WAVCIS,ioos:station:WAVCIS:CSI16:1,2010-01-16T14:00:00Z,29.4012,-89.0355,1.0,29.272,11111222 
WAVCIS,ioos:station:WAVCIS:CSI16:1,2010-01-16T14:15:00Z,29.4012,-89.0355,1.0,29.318,11111222 